EW9877 Weather Reports


time (UTC)temp
C
wind
direction
speed
KPH
gust
KPH
rain 1hr
cm
rain 24hr
cm
rain mn
cm
humidity
%
barometer
mb
20260504100517 12 355 0.0 0.0 0.00 0.00 0.00 81 1009.6
20260504081557 14 355 0.0 0.0 0.00 0.00 0.00 75 1009.4
20260504080516 15 355 0.0 0.0 0.00 0.00 0.00 74 1009.4
20260504050516 19 350 0.0 0.0 0.00 0.00 0.00 62 1009.5
20260504045536 20 350 0.0 0.0 0.00 0.00 0.00 60 1009.4
20260504044516 20 350 0.0 0.0 0.00 0.00 0.00 57 1009.4
20260504043556 20 350 0.0 0.0 0.00 0.00 0.00 56 1009.4
20260504042516 21 350 0.0 0.0 0.00 0.00 0.00 55 1009.3
20260504041536 21 346 0.0 0.0 0.00 0.00 0.00 55 1009.3
20260504040516 21 346 0.0 0.0 0.00 0.00 0.00 54 1009.2
20260504035516 21 345 0.0 0.0 0.00 0.00 0.00 52 1009.2
20260504034516 22 345 0.0 0.0 0.00 0.00 0.00 52 1009.1
20260504033516 22 355 0.0 0.0 0.00 0.00 0.00 51 1009.1
20260504032516 22 342 0.0 0.0 0.00 0.00 0.00 51 1009.1
20260504031516 22 355 0.0 0.0 0.00 0.00 0.00 50 1009.1
20260504030516 23 348 0.0 0.0 0.00 0.00 0.00 50 1009.1
20260504025516 23 333 0.0 0.0 0.00 0.00 0.00 49 1009.1
20260504024516 23 0 0.0 1.6 0.00 0.00 0.00 49 1009.1
20260504023516 23 314 0.0 0.0 0.00 0.00 0.00 49 1009.1
20260504022516 24 330 0.0 0.0 0.00 0.00 0.00 48 1009.1
20260504021516 25 355 0.0 0.0 0.00 0.00 0.00 48 1009.2
20260504020516 25 327 0.0 0.0 0.00 0.00 0.00 47 1009.3
20260504015515 25 334 0.0 0.0 0.00 0.00 0.00 46 1009.2
20260504014516 25 327 0.0 0.0 0.00 0.00 0.00 46 1009.3
20260504013516 25 0 0.0 1.6 0.00 0.00 0.00 45 1009.3
20260504012516 25 315 0.0 1.6 0.00 0.00 0.00 45 1009.4
20260504011516 26 0 0.0 1.6 0.00 0.00 0.00 44 1009.6
20260504010515 26 0 0.0 1.6 0.00 0.00 0.00 44 1009.5
20260504005516 26 338 0.0 6.4 0.00 0.00 0.00 43 1009.6
20260504004516 26 289 0.0 0.0 0.00 0.00 0.00 44 1009.7
20260504003536 27 0 0.0 3.2 0.00 0.00 0.00 45 1009.7
20260504002515 27 338 0.0 4.8 0.00 0.00 0.00 44 1009.8
20260504001515 27 0 0.0 3.2 0.00 0.00 0.00 44 1009.8
20260504000516 27 317 0.0 0.0 0.00 0.00 0.00 44 1009.8
20260503235517 27 315 0.0 3.2 0.00 0.00 0.00 44 1009.9
20260503234516 26 0 0.0 1.6 0.00 0.00 0.00 46 1010.0
20260503233516 26 338 0.0 1.6 0.00 0.00 0.00 46 1010.2
20260503232516 26 338 0.0 1.6 0.00 0.00 0.00 46 1010.3
20260503231516 26 0 0.0 1.6 0.00 0.00 0.00 47 1010.6
20260503230516 26 0 0.0 4.8 0.00 0.00 0.00 47 1010.6
20260503225516 26 0 0.0 3.2 0.00 0.00 0.00 48 1010.8
20260503224516 25 0 0.0 1.6 0.00 0.00 0.00 48 1011.0
20260503223516 25 0 1.6 9.7 0.00 0.00 0.00 48 1011.1
20260503222517 25 0 1.6 16.1 0.00 0.00 0.00 48 1011.2
20260503221516 25 338 1.6 6.4 0.00 0.00 0.00 48 1011.3
20260503220516 25 0 1.6 12.9 0.00 0.00 0.00 48 1011.4
20260503215556 25 0 1.6 12.9 0.00 0.00 0.00 47 1011.5
20260503214516 26 0 1.6 9.7 0.00 0.00 0.00 48 1011.6
20260503213516 26 0 1.6 6.4 0.00 0.00 0.00 47 1011.6
20260503212516 26 0 0.0 6.4 0.00 0.00 0.00 47 1011.6
20260503211516 25 0 1.6 9.7 0.00 0.00 0.00 48 1011.7
20260503210516 25 0 0.0 1.6 0.00 0.00 0.00 48 1011.8
20260503205516 25 333 0.0 0.0 0.00 0.00 0.00 49 1012.0
20260503204516 25 330 0.0 0.0 0.00 0.00 0.00 49 1012.1
20260503203536 25 5 0.0 0.0 0.00 0.00 0.00 51 1012.2
20260503202536 25 0 0.0 1.6 0.00 0.00 0.00 49 1012.3
20260503201516 25 314 0.0 0.0 0.00 0.00 0.00 50 1012.4
20260503200536 25 0 0.0 1.6 0.00 0.00 0.00 49 1012.6
20260503195516 25 315 0.0 1.6 0.00 0.00 0.00 50 1012.7
20260503194516 24 0 0.0 1.6 0.00 0.00 0.00 51 1012.9
20260503193516 24 0 0.0 4.8 0.00 0.00 0.00 51 1013.0
20260503192516 23 0 0.0 3.2 0.00 0.00 0.00 51 1013.2
20260503191516 23 0 0.0 3.2 0.00 0.00 0.00 53 1013.2
20260503190516 23 346 0.0 0.0 0.00 0.00 0.00 55 1013.4
20260503185516 23 0 0.0 4.8 0.00 0.00 0.00 53 1013.5
20260503184516 23 355 0.0 0.0 0.00 0.00 0.00 55 1013.6
20260503183516 22 0 0.0 4.8 0.00 0.00 0.00 55 1013.7
20260503182536 22 315 0.0 1.6 0.00 0.00 0.00 54 1013.7
20260503181516 22 0 0.0 6.4 0.00 0.00 0.00 53 1013.8
20260503180515 22 338 0.0 6.4 0.00 0.00 0.00 55 1013.8
20260503175536 22 0 0.0 6.4 0.00 0.00 0.00 55 1013.8
20260503174515 22 0 0.0 3.2 0.00 0.00 0.00 56 1013.9
20260503173516 21 355 0.0 0.0 0.00 0.00 0.00 59 1014.0
20260503172515 21 9 0.0 0.0 0.00 0.00 0.00 60 1014.1
20260503171515 21 0 0.0 1.6 0.00 0.00 0.00 62 1014.2
20260503170515 20 0 0.0 4.8 0.00 0.00 0.00 63 1014.2
20260503150515 15 5 0.0 0.0 0.00 0.00 0.00 80 1014.7
20260503130517 11 46 0.0 0.0 0.00 0.00 0.00 88 1014.3
20260503110517 12 40 0.0 0.0 0.00 0.00 0.00 86 1014.5